| time (UTC) | temp F | wind direction | speed MPH | gust MPH | rain 1hr in | rain 24hr in | rain mn in | humidity % | barometer mb |
| 20260507045054 | 41 | 65 | 0.0 | 0.0 | 0.00 | 0.31 | 0.00 | 90 | 1013.8 |
| 20260507044534 | 41 | 65 | 0.0 | 0.0 | 0.00 | 0.31 | 0.00 | 90 | 1014.0 |
| 20260507044013 | 41 | 65 | 0.0 | 0.0 | 0.00 | 0.31 | 0.00 | 90 | 1013.8 |
| 20260507043557 | 41 | 65 | 0.0 | 0.0 | 0.00 | 0.31 | 0.00 | 90 | 1014.1 |
| 20260507043038 | 41 | 65 | 0.0 | 0.0 | 0.00 | 0.31 | 0.00 | 90 | 1013.9 |
| 20260507042517 | 41 | 65 | 0.0 | 0.0 | 0.00 | 0.31 | 0.00 | 90 | 1014.1 |
| 20260507042100 | 41 | 65 | 0.0 | 0.0 | 0.00 | 0.31 | 0.00 | 90 | 1014.1 |
| 20260507041541 | 41 | 65 | 0.0 | 0.0 | 0.00 | 0.31 | 0.00 | 90 | 1014.0 |
| 20260507041021 | 41 | 65 | 0.0 | 0.0 | 0.00 | 0.32 | 0.31 | 90 | 1014.0 |
| 20260507040500 | 41 | 65 | 0.0 | 0.0 | 0.00 | 0.32 | 0.31 | 90 | 1014.0 |
| 20260507040044 | 42 | 65 | 0.0 | 0.0 | 0.00 | 0.32 | 0.31 | 90 | 1014.1 |
| 20260507035506 | 42 | 65 | 0.0 | 0.0 | 0.00 | 0.32 | 0.31 | 90 | 1013.8 |
| 20260507035051 | 42 | 65 | 0.0 | 0.0 | 0.00 | 0.32 | 0.31 | 90 | 1013.9 |
| 20260507034549 | 42 | 65 | 0.0 | 0.0 | 0.00 | 0.32 | 0.31 | 90 | 1013.8 |
| 20260507034011 | 42 | 65 | 0.0 | 0.0 | 0.00 | 0.32 | 0.31 | 89 | 1014.0 |
| 20260507033556 | 42 | 65 | 0.0 | 0.0 | 0.00 | 0.32 | 0.31 | 89 | 1014.1 |
| 20260507033041 | 42 | 65 | 0.0 | 0.0 | 0.00 | 0.32 | 0.31 | 89 | 1014.1 |
| 20260507032514 | 42 | 65 | 0.0 | 0.0 | 0.00 | 0.32 | 0.31 | 89 | 1014.0 |
| 20260507032057 | 42 | 65 | 0.0 | 0.0 | 0.00 | 0.32 | 0.31 | 89 | 1013.9 |
| 20260507031537 | 43 | 65 | 0.0 | 0.0 | 0.00 | 0.32 | 0.31 | 89 | 1014.0 |
| 20260507031018 | 43 | 65 | 0.0 | 0.0 | 0.00 | 0.35 | 0.31 | 89 | 1013.9 |
| 20260507030601 | 43 | 65 | 0.0 | 0.0 | 0.00 | 0.35 | 0.31 | 88 | 1013.9 |
| 20260507030041 | 43 | 65 | 0.0 | 0.0 | 0.00 | 0.35 | 0.31 | 88 | 1014.0 |
| 20260507025501 | 43 | 65 | 0.0 | 0.0 | 0.00 | 0.35 | 0.31 | 87 | 1014.0 |
| 20260507025045 | 43 | 65 | 0.0 | 0.0 | 0.00 | 0.35 | 0.31 | 87 | 1014.0 |
| 20260507024543 | 43 | 65 | 0.0 | 0.0 | 0.00 | 0.35 | 0.31 | 87 | 1013.9 |
| 20260507024005 | 43 | 65 | 0.0 | 0.0 | 0.00 | 0.35 | 0.31 | 87 | 1013.9 |
| 20260507023549 | 44 | 65 | 0.0 | 0.0 | 0.00 | 0.35 | 0.31 | 87 | 1013.8 |
| 20260507023030 | 44 | 65 | 0.0 | 0.0 | 0.00 | 0.35 | 0.31 | 87 | 1013.9 |
| 20260507022510 | 44 | 65 | 0.0 | 0.0 | 0.00 | 0.35 | 0.31 | 87 | 1013.7 |
| 20260507022054 | 44 | 65 | 0.0 | 0.0 | 0.00 | 0.35 | 0.31 | 88 | 1013.8 |
| 20260507021542 | 44 | 65 | 0.0 | 0.0 | 0.00 | 0.35 | 0.31 | 87 | 1013.7 |
| 20260507021013 | 44 | 65 | 0.0 | 0.0 | 0.00 | 0.42 | 0.31 | 87 | 1013.9 |
| 20260507020558 | 44 | 65 | 0.0 | 0.0 | 0.00 | 0.42 | 0.31 | 87 | 1014.0 |
| 20260507020038 | 44 | 65 | 0.0 | 0.0 | 0.00 | 0.42 | 0.31 | 87 | 1014.0 |
| 20260507015605 | 44 | 65 | 0.0 | 0.0 | 0.00 | 0.42 | 0.31 | 87 | 1014.1 |
| 20260507015043 | 44 | 65 | 0.0 | 0.0 | 0.00 | 0.42 | 0.31 | 88 | 1014.3 |
| 20260507014535 | 44 | 65 | 0.0 | 0.0 | 0.00 | 0.42 | 0.31 | 87 | 1014.4 |
| 20260507014004 | 44 | 65 | 0.0 | 0.0 | 0.00 | 0.42 | 0.31 | 87 | 1014.5 |
| 20260507013550 | 44 | 65 | 0.0 | 0.0 | 0.00 | 0.42 | 0.31 | 87 | 1014.5 |
| 20260507013027 | 44 | 65 | 0.0 | 0.0 | 0.00 | 0.42 | 0.31 | 86 | 1014.5 |
| 20260507012509 | 44 | 65 | 0.0 | 0.0 | 0.00 | 0.42 | 0.31 | 85 | 1014.3 |
| 20260507012053 | 44 | 65 | 0.0 | 0.0 | 0.00 | 0.42 | 0.31 | 85 | 1014.2 |
| 20260507011539 | 44 | 65 | 0.0 | 0.0 | 0.00 | 0.42 | 0.31 | 85 | 1014.2 |
| 20260507011011 | 44 | 65 | 0.0 | 0.0 | 0.00 | 0.51 | 0.31 | 85 | 1014.0 |
| 20260507010552 | 44 | 65 | 0.0 | 0.0 | 0.00 | 0.51 | 0.31 | 85 | 1013.9 |
| 20260507010033 | 44 | 65 | 0.0 | 0.0 | 0.00 | 0.51 | 0.31 | 84 | 1013.9 |
| 20260507005559 | 44 | 65 | 0.0 | 0.0 | 0.00 | 0.51 | 0.31 | 84 | 1013.8 |
| 20260507005041 | 44 | 65 | 0.0 | 0.0 | 0.00 | 0.51 | 0.31 | 84 | 1013.9 |
| 20260507004519 | 45 | 65 | 0.0 | 0.0 | 0.00 | 0.51 | 0.31 | 83 | 1013.6 |
| 20260507004104 | 45 | 65 | 0.0 | 0.0 | 0.00 | 0.51 | 0.31 | 83 | 1013.5 |
| 20260507003544 | 45 | 65 | 0.0 | 0.0 | 0.00 | 0.51 | 0.31 | 82 | 1013.4 |
| 20260507003023 | 45 | 65 | 0.0 | 0.0 | 0.00 | 0.51 | 0.31 | 82 | 1013.3 |
| 20260507002502 | 45 | 65 | 0.0 | 0.0 | 0.00 | 0.51 | 0.31 | 82 | 1013.3 |
| 20260507002046 | 45 | 65 | 0.0 | 0.0 | 0.00 | 0.51 | 0.31 | 81 | 1013.3 |
| 20260507001528 | 45 | 65 | 0.0 | 0.0 | 0.00 | 0.51 | 0.31 | 82 | 1013.3 |
| 20260507001006 | 45 | 65 | 0.0 | 0.0 | 0.00 | 0.59 | 0.31 | 81 | 1013.5 |
| 20260507000552 | 45 | 65 | 0.0 | 0.0 | 0.00 | 0.59 | 0.31 | 81 | 1013.4 |
| 20260507000031 | 45 | 65 | 0.0 | 0.0 | 0.00 | 0.59 | 0.31 | 81 | 1013.3 |
| 20260506235556 | 46 | 65 | 0.0 | 0.0 | 0.00 | 0.59 | 0.31 | 81 | 1013.3 |
| 20260506235035 | 46 | 65 | 0.0 | 0.0 | 0.00 | 0.59 | 0.31 | 82 | 1013.2 |
| 20260506234515 | 46 | 65 | 0.0 | 0.0 | 0.00 | 0.59 | 0.31 | 82 | 1013.1 |
| 20260506234102 | 46 | 65 | 0.0 | 0.0 | 0.00 | 0.59 | 0.31 | 82 | 1013.1 |
| 20260506233540 | 46 | 65 | 0.0 | 0.0 | 0.00 | 0.59 | 0.31 | 82 | 1013.1 |
| 20260506233020 | 46 | 65 | 0.0 | 0.0 | 0.00 | 0.59 | 0.31 | 82 | 1013.1 |
| 20260506232603 | 46 | 65 | 0.0 | 0.0 | 0.00 | 0.59 | 0.31 | 81 | 1013.4 |
| 20260506232044 | 46 | 65 | 0.0 | 0.0 | 0.00 | 0.59 | 0.31 | 81 | 1013.3 |
| 20260506231524 | 47 | 65 | 0.0 | 2.0 | 0.00 | 0.59 | 0.31 | 81 | 1013.1 |
| 20260506231005 | 47 | 65 | 0.0 | 5.0 | 0.00 | 0.67 | 0.31 | 82 | 1013.2 |
| 20260506230547 | 47 | 65 | 0.0 | 5.0 | 0.00 | 0.67 | 0.31 | 82 | 1013.1 |
| 20260506230013 | 47 | 67 | 0.0 | 0.0 | 0.00 | 0.67 | 0.31 | 82 | 1013.0 |
| 20260506225553 | 47 | 67 | 0.0 | 0.0 | 0.00 | 0.67 | 0.31 | 85 | 1013.0 |
| 20260506225037 | 46 | 67 | 0.0 | 0.0 | 0.00 | 0.67 | 0.31 | 86 | 1012.9 |
| 20260506224515 | 46 | 67 | 0.0 | 4.0 | 0.00 | 0.67 | 0.31 | 87 | 1012.8 |
| 20260506224058 | 46 | 67 | 0.0 | 4.0 | 0.00 | 0.67 | 0.31 | 87 | 1012.7 |
| 20260506223537 | 45 | 65 | 0.0 | 5.0 | 0.00 | 0.67 | 0.31 | 89 | 1012.7 |
| 20260506223010 | 45 | 65 | 0.0 | 4.0 | 0.00 | 0.67 | 0.31 | 90 | 1012.6 |
| 20260506222554 | 44 | 65 | 0.0 | 4.0 | 0.00 | 0.67 | 0.31 | 90 | 1012.6 |
| 20260506222037 | 44 | 66 | 0.0 | 4.0 | 0.00 | 0.67 | 0.31 | 90 | 1012.5 |
| 20260506221515 | 44 | 67 | 0.0 | 4.0 | 0.00 | 0.67 | 0.31 | 90 | 1012.5 |
| 20260506221058 | 43 | 67 | 0.0 | 6.0 | 0.00 | 0.80 | 0.31 | 90 | 1012.3 |
| 20260506220538 | 43 | 67 | 0.0 | 6.0 | 0.01 | 0.80 | 0.31 | 91 | 1012.3 |
| 20260506220122 | 43 | 50 | 0.0 | 5.0 | 0.01 | 0.80 | 0.31 | 91 | 1012.2 |
| 20260506215544 | 43 | 49 | 0.0 | 5.0 | 0.01 | 0.80 | 0.31 | 91 | 1012.2 |
| 20260506215024 | 43 | 49 | 0.0 | 5.0 | 0.01 | 0.80 | 0.31 | 92 | 1012.2 |
| 20260506214504 | 43 | 49 | 0.0 | 5.0 | 0.01 | 0.80 | 0.31 | 91 | 1012.3 |
| 20260506214049 | 43 | 49 | 2.0 | 5.0 | 0.01 | 0.80 | 0.31 | 91 | 1012.4 |
| 20260506213528 | 43 | 48 | 0.0 | 5.0 | 0.01 | 0.80 | 0.31 | 91 | 1012.3 |
| 20260506213009 | 43 | 48 | 0.0 | 4.0 | 0.01 | 0.80 | 0.31 | 91 | 1012.5 |
| 20260506212552 | 43 | 48 | 0.0 | 4.0 | 0.01 | 0.80 | 0.31 | 91 | 1012.5 |
| 20260506212032 | 43 | 48 | 0.0 | 7.0 | 0.01 | 0.80 | 0.31 | 91 | 1012.3 |
| 20260506211512 | 43 | 48 | 1.0 | 7.0 | 0.02 | 0.80 | 0.31 | 91 | 1012.3 |
| 20260506211056 | 43 | 40 | 0.0 | 1.0 | 0.02 | 0.84 | 0.31 | 91 | 1012.2 |
| 20260506210538 | 43 | 38 | 0.0 | 2.0 | 0.01 | 0.83 | 0.30 | 91 | 1012.1 |
| 20260506210122 | 43 | 38 | 0.0 | 8.0 | 0.01 | 0.83 | 0.30 | 91 | 1012.1 |
| 20260506205542 | 43 | 47 | 0.0 | 7.0 | 0.01 | 0.83 | 0.30 | 91 | 1012.1 |
| 20260506205022 | 43 | 48 | 0.0 | 7.0 | 0.01 | 0.83 | 0.30 | 91 | 1012.1 |
| 20260506204504 | 42 | 37 | 0.0 | 4.0 | 0.01 | 0.83 | 0.30 | 91 | 1012.0 |
| 20260506204050 | 42 | 37 | 0.0 | 5.0 | 0.01 | 0.83 | 0.30 | 90 | 1012.0 |
| 20260506203528 | 42 | 36 | 1.0 | 6.0 | 0.01 | 0.83 | 0.30 | 90 | 1012.0 |
| 20260506203012 | 42 | 266 | 1.0 | 6.0 | 0.01 | 0.83 | 0.30 | 90 | 1012.0 |
| 20260506202550 | 42 | 291 | 0.0 | 5.0 | 0.01 | 0.83 | 0.30 | 89 | 1012.0 |
| 20260506202030 | 43 | 305 | 0.0 | 5.0 | 0.00 | 0.82 | 0.28 | 88 | 1012.1 |
| 20260506201512 | 43 | 2 | 0.0 | 4.0 | 0.00 | 0.82 | 0.28 | 88 | 1012.0 |
| 20260506201057 | 43 | 2 | 0.0 | 6.0 | 0.00 | 0.82 | 0.28 | 87 | 1011.9 |
| 20260506200533 | 44 | 289 | 1.0 | 7.0 | 0.00 | 0.82 | 0.28 | 87 | 1011.9 |
| 20260506200118 | 45 | 25 | 1.0 | 8.0 | 0.00 | 0.82 | 0.28 | 86 | 1011.9 |
| 20260506195539 | 46 | 277 | 1.0 | 9.0 | 0.00 | 0.82 | 0.28 | 85 | 1011.8 |
| 20260506195020 | 47 | 304 | 0.0 | 7.0 | 0.00 | 0.82 | 0.28 | 85 | 1011.4 |
| 20260506194603 | 48 | 304 | 3.0 | 7.0 | 0.00 | 0.82 | 0.28 | 85 | 1011.3 |
| 20260506194042 | 49 | 266 | 1.0 | 9.0 | 0.00 | 0.82 | 0.28 | 85 | 1011.1 |
| 20260506193521 | 49 | 255 | 2.0 | 10.0 | 0.00 | 0.82 | 0.28 | 83 | 1010.9 |
| 20260506193001 | 50 | 142 | 1.0 | 10.0 | 0.00 | 0.82 | 0.28 | 83 | 1010.7 |
| 20260506192545 | 51 | 56 | 1.0 | 6.0 | 0.00 | 0.82 | 0.28 | 82 | 1010.5 |
| 20260506192025 | 51 | 354 | 0.0 | 2.0 | 0.00 | 0.82 | 0.28 | 82 | 1010.6 |
| 20260506191503 | 52 | 360 | 0.0 | 2.0 | 0.00 | 0.82 | 0.28 | 82 | 1010.4 |
| 20260506191047 | 52 | 360 | 0.0 | 2.0 | 0.00 | 0.82 | 0.28 | 81 | 1010.2 |
| 20260506190528 | 52 | 360 | 0.0 | 2.0 | 0.00 | 0.82 | 0.28 | 81 | 1010.2 |
| 20260506190111 | 53 | 343 | 0.0 | 2.0 | 0.00 | 0.82 | 0.28 | 81 | 1010.2 |
| 20260506185533 | 53 | 343 | 0.0 | 5.0 | 0.00 | 0.82 | 0.28 | 79 | 1010.2 |
| 20260506185016 | 53 | 343 | 0.0 | 5.0 | 0.00 | 0.82 | 0.28 | 78 | 1010.2 |
| 20260506184558 | 54 | 343 | 0.0 | 2.0 | 0.00 | 0.82 | 0.28 | 80 | 1010.1 |
| 20260506184039 | 53 | 343 | 0.0 | 2.0 | 0.00 | 0.82 | 0.28 | 81 | 1010.1 |
| 20260506183519 | 53 | 343 | 0.0 | 4.0 | 0.00 | 0.82 | 0.28 | 81 | 1010.2 |
| 20260506183108 | 52 | 343 | 1.0 | 4.0 | 0.00 | 0.82 | 0.28 | 83 | 1010.2 |
| 20260506182541 | 51 | 343 | 0.0 | 4.0 | 0.00 | 0.82 | 0.28 | 82 | 1010.4 |
| 20260506182021 | 51 | 343 | 1.0 | 4.0 | 0.00 | 0.82 | 0.28 | 82 | 1010.5 |
| 20260506181502 | 51 | 350 | 0.0 | 2.0 | 0.00 | 0.82 | 0.28 | 83 | 1010.5 |
| 20260506181045 | 51 | 350 | 0.0 | 0.0 | 0.00 | 0.82 | 0.28 | 83 | 1010.4 |
| 20260506180524 | 51 | 350 | 0.0 | 0.0 | 0.00 | 0.82 | 0.28 | 84 | 1010.5 |
| 20260506180107 | 51 | 350 | 0.0 | 5.0 | 0.00 | 0.82 | 0.28 | 85 | 1010.5 |
| 20260506175532 | 51 | 350 | 1.0 | 5.0 | 0.00 | 0.82 | 0.28 | 85 | 1010.5 |
| 20260506175010 | 50 | 350 | 0.0 | 4.0 | 0.00 | 0.82 | 0.28 | 86 | 1010.5 |
| 20260506174601 | 50 | 350 | 0.0 | 4.0 | 0.00 | 0.82 | 0.28 | 86 | 1010.4 |
| 20260506174034 | 50 | 65 | 0.0 | 2.0 | 0.00 | 0.82 | 0.28 | 88 | 1010.4 |
| 20260506173515 | 49 | 65 | 0.0 | 4.0 | 0.00 | 0.82 | 0.28 | 88 | 1010.4 |
| 20260506173127 | 49 | 65 | 1.0 | 4.0 | 0.00 | 0.82 | 0.28 | 88 | 1010.4 |
| 20260506172538 | 49 | 65 | 0.0 | 0.0 | 0.00 | 0.82 | 0.28 | 89 | 1010.6 |
| 20260506172020 | 49 | 65 | 0.0 | 0.0 | 0.00 | 0.82 | 0.28 | 90 | 1010.8 |
| 20260506171601 | 48 | 65 | 0.0 | 0.0 | 0.00 | 0.82 | 0.28 | 90 | 1010.8 |
| 20260506171041 | 48 | 65 | 0.0 | 0.0 | 0.00 | 0.82 | 0.28 | 90 | 1010.9 |
| 20260506170521 | 49 | 65 | 0.0 | 0.0 | 0.00 | 0.82 | 0.28 | 91 | 1010.8 |
| 20260506170105 | 49 | 65 | 0.0 | 0.0 | 0.00 | 0.82 | 0.28 | 91 | 1010.8 |
| 20260506165527 | 48 | 65 | 0.0 | 0.0 | 0.00 | 0.82 | 0.28 | 92 | 1010.8 |
| 20260506165013 | 48 | 65 | 0.0 | 2.0 | 0.00 | 0.82 | 0.28 | 92 | 1010.7 |
| 20260506164552 | 48 | 65 | 0.0 | 2.0 | 0.00 | 0.82 | 0.28 | 92 | 1010.6 |
| 20260506164033 | 48 | 65 | 0.0 | 0.0 | 0.00 | 0.82 | 0.28 | 92 | 1010.7 |
| 20260506163511 | 48 | 65 | 0.0 | 0.0 | 0.00 | 0.82 | 0.28 | 93 | 1010.6 |
| 20260506163056 | 48 | 65 | 0.0 | 0.0 | 0.00 | 0.82 | 0.28 | 93 | 1010.6 |
| 20260506162535 | 48 | 65 | 0.0 | 0.0 | 0.00 | 0.82 | 0.28 | 93 | 1010.5 |
| 20260506162015 | 48 | 65 | 0.0 | 0.0 | 0.00 | 0.82 | 0.28 | 93 | 1010.5 |
| 20260506161610 | 48 | 65 | 0.0 | 0.0 | 0.00 | 0.82 | 0.28 | 93 | 1010.5 |
| 20260506161041 | 48 | 65 | 0.0 | 0.0 | 0.00 | 0.82 | 0.28 | 93 | 1010.6 |
| 20260506160518 | 48 | 64 | 0.0 | 0.0 | 0.00 | 0.82 | 0.28 | 93 | 1010.7 |
| 20260506160110 | 48 | 64 | 0.0 | 0.0 | 0.00 | 0.82 | 0.28 | 94 | 1010.7 |
| 20260506155522 | 48 | 64 | 0.0 | 0.0 | 0.00 | 0.82 | 0.28 | 94 | 1010.7 |
| 20260506155002 | 47 | 64 | 0.0 | 0.0 | 0.00 | 0.82 | 0.28 | 94 | 1010.6 |
| 20260506154546 | 47 | 64 | 0.0 | 0.0 | 0.00 | 0.82 | 0.28 | 94 | 1010.5 |
| 20260506154026 | 47 | 64 | 0.0 | 0.0 | 0.00 | 0.82 | 0.28 | 94 | 1010.5 |
| 20260506153506 | 47 | 64 | 0.0 | 0.0 | 0.00 | 0.82 | 0.28 | 94 | 1010.3 |
| 20260506153050 | 47 | 64 | 0.0 | 0.0 | 0.00 | 0.82 | 0.28 | 94 | 1010.4 |
| 20260506152530 | 47 | 64 | 0.0 | 0.0 | 0.00 | 0.82 | 0.28 | 94 | 1010.4 |
| 20260506152010 | 47 | 64 | 0.0 | 0.0 | 0.00 | 0.82 | 0.28 | 94 | 1010.2 |
| 20260506151555 | 47 | 64 | 0.0 | 0.0 | 0.00 | 0.82 | 0.28 | 94 | 1010.1 |
| 20260506151037 | 47 | 64 | 0.0 | 0.0 | 0.00 | 0.82 | 0.28 | 94 | 1010.1 |
| 20260506150514 | 47 | 64 | 0.0 | 2.0 | 0.00 | 0.82 | 0.28 | 94 | 1010.1 |
| 20260506145524 | 47 | 64 | 0.0 | 1.0 | 0.00 | 0.82 | 0.28 | 94 | 1010.1 |
| 20260506145105 | 46 | 64 | 0.0 | 1.0 | 0.00 | 0.82 | 0.28 | 94 | 1010.1 |
| 20260506144600 | 46 | 64 | 0.0 | 2.0 | 0.01 | 0.82 | 0.28 | 94 | 1010.2 |
| 20260506144024 | 46 | 64 | 0.0 | 2.0 | 0.01 | 0.82 | 0.28 | 94 | 1010.2 |
| 20260506143504 | 46 | 64 | 0.0 | 4.0 | 0.01 | 0.82 | 0.28 | 94 | 1010.1 |
| 20260506143053 | 46 | 64 | 0.0 | 5.0 | 0.01 | 0.82 | 0.28 | 94 | 1010.1 |
| 20260506142527 | 46 | 65 | 0.0 | 5.0 | 0.02 | 0.82 | 0.28 | 94 | 1010.1 |
| 20260506142008 | 46 | 65 | 0.0 | 2.0 | 0.02 | 0.82 | 0.28 | 94 | 1010.2 |
| 20260506141551 | 46 | 65 | 0.0 | 0.0 | 0.02 | 0.82 | 0.28 | 94 | 1010.2 |
| 20260506141033 | 46 | 65 | 0.0 | 2.0 | 0.02 | 0.82 | 0.28 | 94 | 1010.2 |
| 20260506140511 | 46 | 65 | 0.0 | 2.0 | 0.02 | 0.82 | 0.28 | 94 | 1010.1 |
| 20260506140107 | 46 | 65 | 0.0 | 1.0 | 0.02 | 0.82 | 0.28 | 94 | 1010.1 |
| 20260506135514 | 46 | 65 | 0.0 | 2.0 | 0.02 | 0.82 | 0.28 | 94 | 1010.0 |
| 20260506135101 | 46 | 65 | 0.0 | 2.0 | 0.02 | 0.82 | 0.28 | 94 | 1010.0 |
| 20260506134538 | 46 | 65 | 0.0 | 1.0 | 0.01 | 0.81 | 0.28 | 94 | 1010.0 |
| 20260506134018 | 46 | 65 | 0.0 | 0.0 | 0.01 | 0.81 | 0.28 | 94 | 1010.0 |
| 20260506133603 | 46 | 65 | 0.0 | 1.0 | 0.01 | 0.81 | 0.28 | 94 | 1009.9 |
| 20260506133056 | 46 | 65 | 0.0 | 4.0 | 0.01 | 0.81 | 0.28 | 94 | 1009.8 |
| 20260506132522 | 46 | 65 | 0.0 | 4.0 | 0.00 | 0.80 | 0.27 | 94 | 1009.8 |
| 20260506132002 | 46 | 65 | 0.0 | 4.0 | 0.01 | 0.80 | 0.27 | 94 | 1009.8 |
| 20260506131547 | 46 | 65 | 0.0 | 4.0 | 0.01 | 0.80 | 0.27 | 94 | 1009.7 |
| 20260506131025 | 46 | 65 | 0.0 | 1.0 | 0.01 | 0.80 | 0.27 | 94 | 1009.7 |
| 20260506130505 | 46 | 65 | 0.0 | 0.0 | 0.01 | 0.80 | 0.27 | 94 | 1009.6 |
| 20260506130128 | 46 | 65 | 0.0 | 0.0 | 0.01 | 0.80 | 0.27 | 94 | 1009.6 |
| 20260506125510 | 46 | 65 | 0.0 | 0.0 | 0.01 | 0.80 | 0.27 | 94 | 1009.4 |
| 20260506125054 | 46 | 65 | 0.0 | 0.0 | 0.01 | 0.80 | 0.27 | 94 | 1009.4 |
| 20260506124535 | 46 | 65 | 0.0 | 0.0 | 0.01 | 0.80 | 0.27 | 94 | 1009.4 |
| 20260506124014 | 46 | 65 | 0.0 | 1.0 | 0.01 | 0.80 | 0.27 | 94 | 1009.4 |
| 20260506123558 | 46 | 65 | 0.0 | 1.0 | 0.02 | 0.80 | 0.27 | 94 | 1009.4 |
| 20260506123044 | 46 | 65 | 0.0 | 1.0 | 0.02 | 0.80 | 0.27 | 94 | 1009.4 |
| 20260506122517 | 46 | 65 | 0.0 | 0.0 | 0.02 | 0.80 | 0.27 | 94 | 1009.6 |
| 20260506122101 | 46 | 65 | 0.0 | 0.0 | 0.01 | 0.79 | 0.26 | 94 | 1009.6 |
| 20260506121551 | 46 | 65 | 0.0 | 0.0 | 0.01 | 0.79 | 0.26 | 94 | 1009.4 |
| 20260506121022 | 46 | 65 | 0.0 | 0.0 | 0.01 | 0.79 | 0.26 | 94 | 1009.3 |
| 20260506120501 | 46 | 65 | 0.0 | 1.0 | 0.02 | 0.79 | 0.26 | 94 | 1009.2 |
| 20260506120044 | 46 | 65 | 0.0 | 1.0 | 0.02 | 0.79 | 0.26 | 94 | 1009.1 |
| 20260506115514 | 46 | 65 | 0.0 | 0.0 | 0.02 | 0.79 | 0.26 | 94 | 1008.8 |
| 20260506115050 | 46 | 65 | 0.0 | 1.0 | 0.02 | 0.79 | 0.26 | 94 | 1008.8 |
| 20260506114530 | 46 | 65 | 0.0 | 1.0 | 0.02 | 0.79 | 0.26 | 94 | 1008.9 |
| 20260506114014 | 46 | 65 | 0.0 | 1.0 | 0.02 | 0.79 | 0.26 | 94 | 1008.7 |
| 20260506113554 | 46 | 65 | 0.0 | 1.0 | 0.01 | 0.78 | 0.25 | 94 | 1008.5 |
| 20260506113038 | 46 | 65 | 0.0 | 0.0 | 0.02 | 0.78 | 0.25 | 94 | 1008.6 |
| 20260506112513 | 46 | 65 | 0.0 | 0.0 | 0.02 | 0.78 | 0.25 | 94 | 1008.7 |
| 20260506112058 | 46 | 65 | 0.0 | 0.0 | 0.02 | 0.78 | 0.25 | 94 | 1008.7 |
| 20260506111538 | 46 | 65 | 0.0 | 0.0 | 0.02 | 0.78 | 0.25 | 94 | 1008.8 |
| 20260506111018 | 46 | 65 | 0.0 | 0.0 | 0.02 | 0.78 | 0.25 | 94 | 1008.7 |
| 20260506110602 | 46 | 65 | 0.0 | 0.0 | 0.01 | 0.77 | 0.24 | 94 | 1008.7 |
| 20260506110044 | 46 | 65 | 0.0 | 0.0 | 0.01 | 0.77 | 0.24 | 94 | 1009.0 |
| 20260506105505 | 46 | 65 | 0.0 | 0.0 | 0.02 | 0.77 | 0.24 | 94 | 1009.0 |
| 20260506105048 | 46 | 65 | 0.0 | 0.0 | 0.02 | 0.77 | 0.24 | 94 | 1009.0 |
| 20260506104530 | 46 | 65 | 0.0 | 0.0 | 0.02 | 0.77 | 0.24 | 94 | 1009.0 |
| 20260506104008 | 46 | 65 | 0.0 | 0.0 | 0.03 | 0.77 | 0.24 | 94 | 1009.1 |
| 20260506103551 | 46 | 65 | 0.0 | 0.0 | 0.03 | 0.77 | 0.24 | 94 | 1009.1 |
| 20260506103032 | 46 | 65 | 0.0 | 0.0 | 0.02 | 0.76 | 0.23 | 94 | 1009.2 |
| 20260506102511 | 46 | 65 | 0.0 | 1.0 | 0.02 | 0.76 | 0.23 | 94 | 1009.0 |
| 20260506102059 | 46 | 65 | 0.0 | 1.0 | 0.02 | 0.76 | 0.23 | 94 | 1008.7 |
| 20260506101536 | 46 | 65 | 0.0 | 0.0 | 0.02 | 0.76 | 0.23 | 94 | 1008.5 |
| 20260506101015 | 46 | 65 | 0.0 | 0.0 | 0.03 | 0.76 | 0.23 | 94 | 1008.5 |
| 20260506100558 | 46 | 65 | 0.0 | 0.0 | 0.03 | 0.76 | 0.23 | 94 | 1008.6 |
| 20260506100043 | 46 | 65 | 0.0 | 0.0 | 0.03 | 0.76 | 0.23 | 94 | 1008.6 |
| 20260506095604 | 46 | 65 | 0.0 | 0.0 | 0.03 | 0.75 | 0.22 | 94 | 1009.0 |
| 20260506095043 | 46 | 65 | 0.0 | 1.0 | 0.03 | 0.75 | 0.22 | 94 | 1009.1 |
| 20260506094526 | 46 | 65 | 0.0 | 1.0 | 0.03 | 0.74 | 0.21 | 94 | 1009.0 |
| 20260506094002 | 46 | 65 | 0.0 | 0.0 | 0.03 | 0.74 | 0.21 | 94 | 1009.2 |
| 20260506093547 | 46 | 65 | 0.0 | 0.0 | 0.04 | 0.74 | 0.21 | 94 | 1009.0 |
| 20260506093032 | 46 | 65 | 0.0 | 1.0 | 0.04 | 0.74 | 0.21 | 94 | 1009.0 |
| 20260506092507 | 47 | 65 | 0.0 | 0.0 | 0.05 | 0.74 | 0.21 | 94 | 1008.9 |
| 20260506092053 | 47 | 65 | 0.0 | 0.0 | 0.05 | 0.74 | 0.21 | 94 | 1009.0 |
| 20260506091531 | 47 | 65 | 0.0 | 0.0 | 0.04 | 0.73 | 0.20 | 94 | 1009.0 |
| 20260506091015 | 47 | 65 | 0.0 | 1.0 | 0.04 | 0.73 | 0.20 | 94 | 1009.1 |
| 20260506090554 | 47 | 65 | 0.0 | 1.0 | 0.05 | 0.73 | 0.20 | 94 | 1009.2 |
| 20260506090017 | 47 | 65 | 0.0 | 2.0 | 0.04 | 0.72 | 0.19 | 94 | 1009.3 |
| 20260506085602 | 47 | 65 | 0.0 | 2.0 | 0.04 | 0.72 | 0.19 | 94 | 1009.2 |
| 20260506085044 | 47 | 65 | 0.0 | 2.0 | 0.04 | 0.72 | 0.19 | 94 | 1009.3 |
| 20260506084521 | 46 | 65 | 0.0 | 2.0 | 0.04 | 0.71 | 0.18 | 94 | 1009.3 |
| 20260506084002 | 46 | 65 | 0.0 | 1.0 | 0.05 | 0.71 | 0.18 | 94 | 1009.3 |
| 20260506083545 | 46 | 65 | 0.0 | 1.0 | 0.04 | 0.70 | 0.17 | 94 | 1009.3 |
| 20260506083031 | 46 | 65 | 0.0 | 1.0 | 0.04 | 0.70 | 0.17 | 94 | 1009.2 |
| 20260506082508 | 46 | 65 | 0.0 | 1.0 | 0.04 | 0.69 | 0.16 | 94 | 1008.9 |
| 20260506082049 | 46 | 65 | 0.0 | 0.0 | 0.04 | 0.69 | 0.16 | 93 | 1008.8 |
| 20260506081529 | 47 | 65 | 0.0 | 5.0 | 0.05 | 0.69 | 0.16 | 93 | 1008.9 |
| 20260506081009 | 47 | 65 | 0.0 | 5.0 | 0.05 | 0.69 | 0.16 | 93 | 1009.1 |
| 20260506080557 | 47 | 79 | 0.0 | 2.0 | 0.04 | 0.68 | 0.15 | 94 | 1008.9 |
| 20260506073016 | 47 | 79 | 0.0 | 4.0 | 0.07 | 0.66 | 0.13 | 93 | 1009.1 |
| 20260506072602 | 47 | 79 | 0.0 | 4.0 | 0.06 | 0.65 | 0.12 | 93 | 1009.1 |
| 20260506072040 | 47 | 84 | 0.0 | 4.0 | 0.07 | 0.65 | 0.12 | 93 | 1009.2 |
| 20260506071520 | 47 | 84 | 0.0 | 4.0 | 0.06 | 0.64 | 0.11 | 93 | 1009.1 |
| 20260506071103 | 47 | 84 | 0.0 | 4.0 | 0.06 | 0.64 | 0.11 | 93 | 1009.0 |
| 20260506070543 | 47 | 84 | 0.0 | 1.0 | 0.07 | 0.64 | 0.11 | 93 | 1009.2 |
| 20260506062036 | 47 | 280 | 0.0 | 0.0 | 0.03 | 0.57 | 0.05 | 93 | 1009.2 |
| 20260506061516 | 47 | 280 | 0.0 | 0.0 | 0.03 | 0.57 | 0.05 | 93 | 1009.5 |
| 20260506061100 | 47 | 280 | 0.0 | 0.0 | 0.03 | 0.57 | 0.05 | 93 | 1009.3 |
| 20260506060539 | 47 | 280 | 0.0 | 0.0 | 0.02 | 0.56 | 0.04 | 93 | 1009.2 |
| 20260506051057 | 47 | 280 | 0.0 | 0.0 | 0.02 | 0.55 | 0.02 | 93 | 1010.0 |
| 20260506050537 | 47 | 280 | 0.0 | 0.0 | 0.02 | 0.55 | 0.02 | 93 | 1010.0 |
| 20260506050121 | 47 | 280 | 0.0 | 0.0 | 0.02 | 0.55 | 0.02 | 93 | 1010.0 |